Wind_Speed
5 4 4 4 5 6 4 3 5 7 9 9 10 10 10 11 13 13 12 12 11 12 11 11 11 11 11 10 10 10 10 9 8 7 7 7 6 5 5 5 5 4 4 4
6 6 7 8 8 6 5 4 6 7 9 10 11 11 11 11 13 13 13 12 12 12 11 11 11 12 11 10 10 10 10 9 8 7 7 7 6 5 5 5 5 5 5 5
9 9 10 9 8 6 6 7 9 10 9 9 11 12 13 12 12 12 13 12 12 12 12 11 11 12 11 10 10 11 9 9 9 8 7 7 6 6 6 6 6 5 5 6
12 12 11 9 9 8 8 10 11 10 9 9 10 13 12 12 12 12 13 12 12 12 12 12 12 12 11 10 10 9 9 9 9 8 8 8 7 7 7 7 7 7 6 6
12 12 12 12 11 10 10 10 9 8 9 9 10 11 13 13 13 13 14 13 12 13 12 13 13 12 12 11 10 10 10 10 9 9 10 9 8 8 8 8 8 8 7 7
13 13 13 12 12 11 11 9 8 9 9 11 11 13 14 14 14 15 15 15 13 14 14 13 14 13 13 12 12 11 11 11 11 11 11 11 10 10 9 9 9 9 9 9
13 14 13 12 12 12 11 9 11 11 11 13 13 14 17 17 16 16 18 16 15 15 14 14 14 14 14 13 13 13 13 13 12 12 12 12 12 12 11 11 10 10 11 10
13 15 14 14 13 13 13 11 11 13 13 14 14 15 18 18 19 18 17 17 17 17 16 15 14 14 14 14 14 14 14 14 14 14 14 14 14 13 13 13 13 13 12 12
15 17 16 16 16 15 13 13 13 15 15 16 16 16 18 19 20 19 18 18 18 18 18 17 16 17 16 15 15 15 15 15 15 16 16 15 15 15 15 15 15 15 15 14
17 17 16 17 17 16 16 15 14 14 17 17 17 17 18 20 21 20 20 20 19 19 19 20 20 20 18 17 16 16 16 17 17 17 17 16 17 17 16 17 17 18 18 17
18 18 17 17 17 17 17 15 15 16 16 17 18 18 21 21 22 22 21 21 20 21 20 21 21 21 20 20 19 18 18 18 18 18 18 17 18 18 18 18 19 19 19 20
20 19 20 19 20 19 19 18 18 18 19 18 19 21 22 23 23 23 22 23 22 23 22 21 22 22 21 21 20 19 19 19 18 18 19 19 19 19 20 20 20 21 21 21
21 21 21 19 20 22 20 19 19 19 20 20 19 21 22 24 24 24 24 24 24 25 25 24 23 23 22 21 22 21 21 20 20 20 19 20 20 20 20 20 21 22 22 21
24 23 22 22 22 22 22 21 21 21 21 22 21 22 23 26 27 27 26 25 26 26 26 24 24 23 23 23 23 23 23 22 22 22 21 21 21 21 21 21 22 22 23 23
25 24 23 22 22 22 23 24 23 23 23 23 22 24 25 27 28 28 27 26 27 28 26 25 24 24 24 24 24 25 25 25 24 23 23 22 22 22 22 22 22 23 24 24
26 25 25 24 22 22 24 23 23 23 24 24 24 26 27 27 26 28 28 27 28 28 27 25 25 25 25 25 25 25 25 25 25 25 24 24 23 23 23 24 24 24 25 25
28 27 26 25 22 23 24 23 24 24 24 25 26 28 27 27 28 30 30 28 29 30 27 26 25 26 26 26 26 26 25 25 26 26 26 25 25 25 25 25 25 25 25 26
28 28 27 25 24 25 24 24 25 25 25 25 26 28 29 29 30 31 30 28 29 28 28 28 27 27 27 27 26 27 26 26 26 26 27 27 27 26 27 27 27 27 27 27
28 28 27 27 26 26 26 26 24 25 26 26 27 28 29 29 30 30 29 29 29 30 29 28 28 28 28 27 27 27 26 27 27 27 27 28 28 28 28 28 28 28 28 28
29 29 29 28 27 27 27 26 24 25 27 27 27 29 29 29 30 30 30 31 30 29 29 28 28 29 29 28 28 28 28 28 29 29 28 29 29 29 29 28 28 28 29 29
28 29 29 28 29 29 27 25 25 26 28 27 27 28 29 29 29 30 30 30 29 29 29 29 29 29 29 29 29 29 30 30 30 29 29 30 29 29 29 29 29 28 29 29
29 27 28 28 29 30 28 26 27 28 28 27 28 28 29 30 30 30 30 30 30 30 29 30 30 30 29 30 29 30 30 30 30 30 30 30 30 30 30 30 30 29 29 29
28 28 28 29 28 28 27 28 29 29 28 27 28 29 30 30 31 31 30 30 30 30 29 29 29 29 30 31 31 30 30 30 29 29 30 29 30 31 31 30 30 29 29 29
30 29 28 28 28 29 29 29 29 30 29 30 29 30 31 31 29 30 30 30 30 29 29 29 29 30 31 31 31 31 31 30 30 28 29 30 31 31 31 31 30 30 30 30
30 29 29 29 29 30 30 30 30 30 30 30 29 30 30 30 30 31 31 30 30 30 30 30 30 30 31 31 31 32 32 31 30 30 30 30 30 30 30 31 31 31 31 32
30 30 31 31 30 31 31 30 31 31 31 30 31 30 29 29 29 29 30 29 29 28 29 30 31 31 32 32 32 32 31 31 30 30 30 30 30 30 31 31 31 31 32 33
Wind_Direction
194 203 198 219 242 240 244 283 307 314 312 314 313 318 323 331 336 336 339 340 338 334 335 335 334 332 334 336 339 336 335 334 336 338 338 340 337 337 335 330 328 330 321 314
216 233 228 221 235 243 246 279 292 290 288 299 311 315 319 328 331 334 336 335 339 337 333 331 330 326 325 328 328 329 329 329 326 327 329 334 330 327 328 330 327 322 321 316
224 236 241 241 242 248 255 267 271 279 289 298 307 311 315 323 323 330 332 332 332 334 333 330 327 324 321 320 321 324 326 327 323 322 322 322 325 320 314 316 316 314 313 311
229 236 241 242 247 242 258 264 271 280 288 288 298 299 305 315 314 322 325 326 327 328 330 329 327 323 321 319 318 318 319 324 323 319 315 310 312 313 307 302 300 300 297 299
236 240 241 243 247 248 255 262 273 281 284 284 284 285 291 306 305 306 314 318 321 322 325 324 323 322 319 315 313 311 313 315 315 315 313 308 303 304 305 300 300 299 298 300
237 244 243 246 252 256 264 271 291 296 288 276 276 283 288 286 297 296 300 306 310 314 316 317 316 317 315 312 308 306 306 305 305 304 306 304 300 299 297 295 294 291 292 297
247 250 248 247 251 256 263 271 278 280 279 277 280 283 282 280 285 290 298 299 303 308 308 308 311 316 313 309 307 302 303 301 299 298 297 296 294 294 292 290 289 290 294 298
252 256 251 246 246 253 262 261 268 275 276 279 279 278 283 289 289 290 294 298 299 302 303 305 306 310 310 307 304 300 298 299 296 294 292 292 291 289 287 284 284 287 289 291
240 250 254 255 253 255 257 258 261 270 276 279 272 274 277 282 286 286 290 293 294 297 299 299 300 301 302 303 301 299 294 294 293 292 291 288 287 286 284 283 282 284 287 289
240 248 255 257 256 258 257 259 260 263 273 275 281 279 276 278 281 285 287 289 291 293 294 295 295 297 299 299 298 296 296 294 291 290 289 286 283 283 283 282 282 282 282 284
240 247 253 255 254 254 261 262 262 265 266 272 279 281 282 278 278 281 283 287 292 293 293 294 293 294 295 295 294 293 294 294 293 292 291 288 284 282 283 282 282 282 281 281
245 245 250 252 257 259 261 261 259 264 267 268 273 277 280 278 278 281 281 282 287 290 292 291 291 291 292 290 290 290 291 292 291 291 290 287 284 282 282 281 280 279 280 279
245 244 247 252 256 260 260 259 262 263 267 268 270 273 275 277 279 280 281 284 287 289 290 290 289 288 288 287 288 284 287 290 290 289 289 287 284 282 282 280 279 279 279 280
247 247 246 249 252 258 263 262 262 263 263 263 263 266 265 269 273 276 278 282 284 284 286 287 288 287 286 285 285 286 285 289 290 290 292 291 287 284 282 281 281 279 279 279
250 250 249 251 254 258 261 264 264 263 260 259 260 264 264 268 274 275 278 280 282 283 284 285 286 286 285 285 283 284 286 286 286 288 291 293 289 286 285 283 282 280 280 280
254 253 252 252 253 258 262 262 264 262 259 257 257 259 265 269 274 279 281 280 281 281 282 283 284 286 284 283 283 283 285 286 285 286 288 289 289 288 286 284 283 282 281 282
254 256 256 255 253 257 259 259 262 265 264 261 260 261 263 265 270 274 277 281 281 281 280 284 285 285 284 282 281 280 281 283 284 285 287 286 286 286 286 286 283 281 281 281
257 258 259 257 255 255 256 259 261 263 263 260 260 261 263 267 269 272 275 278 278 279 281 283 282 282 282 282 281 280 280 281 282 283 284 286 286 284 285 284 284 281 279 280
259 259 258 256 256 257 255 258 260 262 261 260 260 263 265 267 268 269 274 277 275 279 280 281 280 281 281 280 280 280 279 279 280 281 282 285 286 286 284 283 282 282 281 280
257 257 255 254 253 254 257 262 261 259 261 262 264 267 270 270 270 270 272 275 275 277 278 279 280 281 281 279 279 279 278 278 279 280 281 283 284 284 283 282 280 281 282 281
255 256 255 253 255 257 258 261 263 259 261 263 266 268 270 270 268 269 273 274 277 278 278 279 280 281 281 279 278 278 278 278 279 279 280 281 282 282 283 284 282 281 282 282
252 253 253 253 254 257 260 258 256 261 264 265 266 268 267 267 269 270 271 274 277 276 276 279 279 279 279 279 280 280 279 280 279 278 278 279 281 281 281 282 282 281 282 283
251 251 252 251 253 256 256 255 258 260 265 265 265 266 265 266 268 271 274 275 277 276 275 277 278 278 278 280 282 283 283 282 280 278 278 279 280 281 282 282 281 282 282 283
250 249 249 249 251 252 254 255 257 259 264 267 267 269 269 270 270 271 274 275 275 275 278 279 279 280 281 281 282 283 284 284 282 281 280 279 280 280 281 280 281 281 282 284
248 249 248 249 249 253 255 257 259 263 265 267 268 268 269 271 272 273 274 275 275 275 274 276 278 279 282 282 283 284 284 283 282 281 280 280 280 281 281 281 281 281 282 284
247 247 248 250 251 253 255 258 261 264 267 269 270 270 270 271 272 273 274 275 275 275 277 275 277 279 281 282 284 284 285 284 283 281 280 280 281 282 281 281 281 282 282 283
Height
5923 5926 5927 5928 5929 5929 5930 5930 5931 5930 5928 5927 5925 5923 5922 5920 5919 5917 5916 5914 5912 5911 5910 5908 5907 5906 5905 5904 5903 5902 5901 5900 5899 5899 5899 5898 5898 5898 5898 5898 5898 5898 5898 5898
5924 5925 5927 5927 5927 5928 5929 5930 5930 5930 5928 5926 5924 5923 5921 5919 5919 5917 5915 5914 5912 5910 5909 5908 5907 5905 5904 5904 5903 5902 5901 5900 5899 5899 5899 5899 5898 5898 5898 5898 5898 5898 5898 5898
5923 5925 5924 5925 5926 5927 5928 5929 5929 5928 5926 5924 5923 5921 5919 5919 5918 5917 5915 5914 5912 5910 5908 5907 5906 5905 5904 5903 5902 5901 5900 5900 5899 5899 5898 5898 5898 5898 5898 5898 5898 5898 5897 5897
5921 5921 5922 5923 5925 5925 5926 5927 5926 5925 5925 5924 5924 5921 5919 5917 5917 5916 5914 5913 5911 5910 5908 5907 5906 5904 5903 5902 5901 5901 5900 5899 5899 5898 5898 5898 5898 5897 5897 5897 5897 5897 5896 5896
5918 5919 5920 5921 5922 5923 5923 5924 5923 5922 5923 5923 5922 5921 5919 5916 5915 5914 5913 5912 5911 5909 5908 5906 5905 5903 5902 5901 5900 5900 5899 5898 5898 5898 5897 5897 5897 5897 5896 5896 5896 5895 5895 5895
5915 5916 5917 5919 5920 5921 5921 5921 5921 5921 5922 5922 5921 5920 5918 5916 5914 5912 5911 5911 5909 5908 5906 5905 5903 5902 5901 5900 5899 5898 5898 5897 5897 5896 5896 5895 5895 5895 5895 5894 5894 5894 5893 5893
5912 5914 5914 5916 5917 5919 5919 5920 5920 5920 5920 5920 5919 5918 5916 5914 5912 5910 5909 5908 5907 5906 5904 5903 5901 5900 5899 5898 5897 5896 5896 5895 5895 5894 5894 5894 5893 5892 5892 5892 5892 5892 5891 5891
5911 5912 5912 5913 5914 5915 5916 5917 5919 5918 5918 5917 5917 5915 5914 5910 5909 5907 5906 5905 5904 5903 5902 5900 5898 5897 5896 5895 5894 5894 5893 5893 5892 5892 5892 5891 5890 5890 5889 5889 5889 5889 5889 5888
5908 5909 5910 5910 5911 5912 5913 5914 5915 5915 5914 5914 5912 5911 5910 5907 5905 5903 5902 5902 5901 5899 5898 5897 5896 5895 5893 5892 5891 5891 5890 5890 5889 5889 5888 5888 5887 5887 5886 5886 5886 5886 5886 5885
5903 5905 5906 5907 5907 5908 5909 5910 5911 5911 5910 5909 5909 5907 5905 5903 5901 5900 5899 5898 5896 5896 5895 5894 5892 5891 5890 5889 5888 5888 5887 5887 5886 5885 5884 5884 5883 5883 5883 5883 5882 5882 5882 5882
5899 5901 5902 5903 5903 5905 5906 5906 5906 5906 5907 5907 5906 5906 5901 5899 5898 5897 5896 5894 5893 5892 5890 5889 5888 5887 5886 5885 5884 5884 5883 5883 5882 5881 5880 5880 5879 5879 5879 5878 5878 5878 5878 5877
5893 5895 5896 5898 5899 5900 5901 5901 5902 5903 5902 5901 5901 5903 5897 5894 5892 5891 5890 5889 5888 5887 5886 5885 5884 5882 5882 5881 5880 5879 5878 5878 5877 5876 5876 5875 5874 5874 5874 5874 5873 5873 5873 5872
5887 5889 5890 5893 5896 5894 5894 5895 5896 5897 5897 5897 5897 5899 5893 5889 5887 5885 5885 5883 5883 5882 5881 5881 5879 5878 5876 5875 5875 5874 5873 5872 5872 5871 5870 5869 5869 5869 5868 5868 5868 5867 5867 5867
5881 5882 5885 5887 5888 5889 5889 5890 5890 5891 5891 5891 5891 5890 5887 5885 5883 5880 5879 5878 5878 5877 5876 5875 5874 5873 5872 5871 5870 5869 5867 5867 5867 5866 5865 5864 5863 5863 5862 5862 5862 5861 5861 5861
5874 5876 5877 5879 5881 5883 5883 5884 5884 5884 5884 5884 5885 5883 5880 5878 5876 5874 5872 5872 5872 5870 5869 5869 5868 5867 5866 5866 5865 5864 5863 5862 5861 5861 5860 5859 5858 5857 5856 5856 5855 5855 5855 5854
5867 5868 5870 5872 5874 5875 5875 5876 5877 5877 5876 5876 5876 5875 5873 5871 5869 5867 5865 5864 5864 5864 5863 5863 5862 5861 5860 5859 5859 5858 5857 5856 5855 5854 5854 5853 5852 5851 5850 5850 5849 5849 5848 5848
5859 5861 5862 5864 5866 5867 5868 5869 5870 5870 5869 5869 5869 5868 5866 5865 5863 5862 5860 5859 5857 5856 5856 5856 5855 5854 5854 5853 5852 5851 5850 5849 5849 5848 5847 5847 5846 5845 5844 5843 5842 5842 5841 5841
5852 5854 5855 5857 5859 5858 5863 5861 5862 5862 5861 5861 5860 5859 5858 5858 5857 5855 5853 5851 5849 5849 5849 5849 5849 5847 5846 5846 5845 5844 5843 5843 5842 5842 5841 5840 5839 5838 5837 5836 5835 5834 5833 5833
5845 5846 5847 5849 5850 5851 5853 5852 5853 5854 5852 5852 5851 5851 5850 5849 5848 5847 5845 5843 5842 5842 5842 5842 5841 5840 5839 5838 5838 5837 5836 5836 5835 5834 5834 5833 5831 5830 5829 5828 5827 5826 5825 5825
5837 5838 5840 5841 5842 5843 5846 5845 5845 5846 5844 5843 5842 5842 5841 5841 5840 5839 5837 5836 5834 5835 5835 5834 5833 5832 5832 5831 5830 5829 5828 5828 5827 5826 5826 5825 5824 5822 5821 5820 5819 5818 5818 5817
5828 5829 5830 5832 5833 5835 5836 5837 5838 5838 5836 5835 5834 5834 5833 5833 5832 5831 5830 5829 5827 5827 5827 5826 5825 5825 5824 5823 5822 5821 5820 5819 5818 5818 5817 5817 5815 5814 5813 5812 5811 5810 5810 5809
5820 5821 5823 5825 5826 5828 5829 5829 5829 5828 5827 5827 5827 5826 5826 5825 5824 5822 5822 5821 5821 5819 5818 5819 5818 5817 5816 5815 5813 5813 5811 5810 5809 5809 5809 5808 5807 5806 5806 5805 5803 5802 5801 5801
5812 5814 5815 5817 5819 5818 5818 5819 5819 5819 5819 5819 5819 5818 5818 5817 5816 5815 5815 5814 5812 5810 5811 5810 5810 5809 5808 5807 5807 5806 5804 5802 5801 5801 5800 5800 5799 5798 5797 5797 5796 5795 5793 5793
5803 5804 5806 5808 5808 5809 5810 5810 5811 5811 5811 5811 5810 5811 5810 5810 5808 5807 5808 5807 5806 5804 5804 5802 5802 5802 5801 5800 5799 5798 5797 5795 5794 5793 5792 5791 5790 5790 5789 5788 5788 5787 5786 5785
5794 5796 5797 5799 5800 5801 5801 5802 5803 5803 5803 5803 5802 5803 5803 5803 5802 5801 5800 5800 5799 5798 5797 5795 5795 5794 5793 5792 5790 5789 5788 5787 5785 5784 5783 5783 5782 5781 5781 5780 5779 5778 5778 5776
5787 5788 5789 5790 5792 5793 5794 5794 5795 5795 5795 5795 5795 5795 5795 5794 5794 5793 5792 5792 5791 5790 5789 5788 5787 5786 5785 5784 5783 5781 5780 5778 5777 5776 5775 5774 5773 5772 5772 5771 5771 5769 5769 5768